Location: Unspecified
(0.0000°N, 0.0000°E)
Time: 08:49:55
(UTC+00:00)

Vanguard 2 Rocket - Pass Details

Date: 27 January 2020
Orbit: 554 x 3326 km, 32.9° (Epoch: 28 September)

Event Time Altitude Azimuth Distance (km) Brightness Sun altitude
Rises 11:52:18 0° 305° (NW) 4,951 10.5 70.8°
Reaches altitude 10° 11:55:00 10° 305° (NW) 4,258 10.3 71.0°
Maximum altitude 12:07:46 88° 216° (SW) 2,694 11.1 71.4°
Drops below altitude 10° 12:27:48 10° 127° (SE) 6,277 11.4 71.1°
Sets 12:32:48 0° 126° (SE) 7,311 11.6 70.8°
